Hourly Weather Gogolevo

Today, 20 September, Monday

Time Temperature Precipitation Wind Pressure Humidity
00:00 +5°C° 0 mm 5 mps 760 mmHg 69%
01:00 +3°C° 0 mm 5 mps 760 mmHg 70%
02:00 +3°C° 0 mm 5 mps 760 mmHg 71%
03:00 +3°C° 0 mm 5 mps 760 mmHg 72%
04:00 +3°C° 0 mm 5 mps 759 mmHg 72%
05:00 +3°C° 0 mm 5 mps 759 mmHg 73%
06:00 +3°C° 0 mm 5 mps 759 mmHg 73%
07:00 +3°C° 0 mm 6 mps 759 mmHg 73%
08:00 +4°C° 0 mm 6 mps 759 mmHg 73%
09:00 +4°C° 0.1 mm 6 mps 759 mmHg 76%
10:00 +3°C° 0.1 mm 6 mps 759 mmHg 80%
11:00 +3°C° 0.1 mm 5 mps 759 mmHg 83%
12:00 +3°C° 0.3 mm 5 mps 759 mmHg 87%
13:00 +3°C° 0.3 mm 5 mps 759 mmHg 92%
14:00 +2°C° 0.3 mm 5 mps 759 mmHg 96%
15:00 +2°C° 0.1 mm 5 mps 759 mmHg 96%
16:00 +2°C° 0.1 mm 5 mps 759 mmHg 96%
17:00 +3°C° 0.1 mm 5 mps 759 mmHg 96%
18:00 +3°C° 0 mm 5 mps 759 mmHg 96%
19:00 +3°C° 0 mm 5 mps 759 mmHg 96%
20:00 +3°C° 0 mm 5 mps 759 mmHg 96%
21:00 +4°C° 0 mm 4 mps 759 mmHg 96%
22:00 +4°C° 0 mm 4 mps 759 mmHg 97%
23:00 +4°C° 0 mm 4 mps 759 mmHg 97%

Tomorrow, 21 September, Tuesday

Time Temperature Precipitation Wind Pressure Humidity
00:00 +3°C° 0 mm 4 mps 759 mmHg 97%
01:00 +3°C° 0 mm 4 mps 759 mmHg 97%
02:00 +3°C° 0 mm 4 mps 758 mmHg 97%
03:00 +3°C° 0 mm 4 mps 758 mmHg 96%
04:00 +3°C° 0 mm 4 mps 758 mmHg 95%
05:00 +3°C° 0 mm 3 mps 758 mmHg 94%
06:00 +3°C° 0 mm 3 mps 758 mmHg 93%
07:00 +3°C° 0 mm 3 mps 758 mmHg 92%
08:00 +3°C° 0 mm 3 mps 758 mmHg 92%
09:00 +3°C° 0 mm 3 mps 758 mmHg 92%
10:00 +3°C° 0 mm 3 mps 758 mmHg 93%
11:00 +3°C° 0 mm 3 mps 758 mmHg 93%
12:00 +3°C° 0 mm 3 mps 758 mmHg 94%
13:00 +3°C° 0 mm 3 mps 758 mmHg 95%
14:00 +3°C° 0 mm 3 mps 758 mmHg 96%
15:00 +3°C° 0.2 mm 3 mps 758 mmHg 96%
16:00 +3°C° 0.2 mm 3 mps 758 mmHg 97%
17:00 +3°C° 0.2 mm 3 mps 758 mmHg 97%
18:00 +3°C° 0.3 mm 3 mps 758 mmHg 97%
19:00 +4°C° 0.3 mm 2 mps 758 mmHg 97%
20:00 +4°C° 0.3 mm 2 mps 758 mmHg 97%
21:00 +4°C° 0.2 mm 2 mps 758 mmHg 98%
22:00 +4°C° 0.2 mm 2 mps 758 mmHg 98%
23:00 +4°C° 0.2 mm 2 mps 758 mmHg 98%

Day after tomorrow, 22 September, Wednesday

Time Temperature Precipitation Wind Pressure Humidity
00:00 +4°C° 0 mm 2 mps 758 mmHg 97%
01:00 +5°C° 0 mm 2 mps 758 mmHg 97%
02:00 +5°C° 0 mm 2 mps 758 mmHg 97%
03:00 +5°C° 0 mm 2 mps 758 mmHg 97%
04:00 +4°C° 0 mm 3 mps 758 mmHg 97%
05:00 +4°C° 0 mm 3 mps 758 mmHg 98%
06:00 +4°C° 0 mm 3 mps 758 mmHg 97%
07:00 +4°C° 0 mm 3 mps 758 mmHg 97%
08:00 +4°C° 0 mm 3 mps 758 mmHg 97%
09:00 +4°C° 0 mm 3 mps 759 mmHg 96%
10:00 +5°C° 0 mm 3 mps 759 mmHg 95%
11:00 +5°C° 0 mm 3 mps 759 mmHg 94%
12:00 +5°C° 0 mm 3 mps 759 mmHg 92%
13:00 +7°C° 0 mm 3 mps 759 mmHg 91%
14:00 +7°C° 0 mm 3 mps 759 mmHg 90%
15:00 +7°C° 0 mm 3 mps 759 mmHg 90%
16:00 +7°C° 0 mm 2 mps 759 mmHg 90%
17:00 +7°C° 0 mm 2 mps 759 mmHg 89%
18:00 +7°C° 0 mm 2 mps 759 mmHg 91%
19:00 +6°C° 0 mm 2 mps 759 mmHg 92%
20:00 +7°C° 0 mm 1 mps 759 mmHg 93%
21:00 +6°C° 0 mm 1 mps 758 mmHg 94%
22:00 +6°C° 0 mm 1 mps 758 mmHg 95%
23:00 +4°C° 0 mm 2 mps 758 mmHg 96%

23 September, Thursday

Time Temperature Precipitation Wind Pressure Humidity
00:00 +5°C° 0 mm 1 mps 757 mmHg 96%
01:00 +5°C° 0 mm 1 mps 757 mmHg 96%
02:00 +4°C° 0 mm 1 mps 757 mmHg 96%
03:00 +4°C° 0 mm 1 mps 756 mmHg 96%
04:00 +5°C° 0 mm 1 mps 756 mmHg 95%
05:00 +5°C° 0 mm 1 mps 756 mmHg 95%
06:00 +5°C° 0 mm 1 mps 756 mmHg 93%
07:00 +6°C° 0 mm 1 mps 756 mmHg 91%
08:00 +6°C° 0 mm 1 mps 755 mmHg 90%
09:00 +7°C° 0 mm 1 mps 755 mmHg 89%
10:00 +7°C° 0 mm 1 mps 755 mmHg 88%
11:00 +8°C° 0 mm 1 mps 755 mmHg 88%
12:00 +8°C° 0 mm 1 mps 755 mmHg 87%
13:00 +8°C° 0 mm 1 mps 754 mmHg 85%
14:00 +9°C° 0 mm 1 mps 754 mmHg 84%
15:00 +7°C° 0 mm 2 mps 754 mmHg 85%
16:00 +7°C° 0 mm 2 mps 753 mmHg 86%
17:00 +7°C° 0 mm 2 mps 753 mmHg 88%
18:00 +7°C° 0 mm 2 mps 753 mmHg 89%
19:00 +7°C° 0 mm 3 mps 752 mmHg 90%
20:00 +5°C° 0 mm 3 mps 752 mmHg 91%
21:00 +5°C° 0 mm 3 mps 752 mmHg 91%
22:00 +5°C° 0 mm 3 mps 751 mmHg 90%
23:00 +5°C° 0 mm 3 mps 750 mmHg 90%

24 September, Friday

Time Temperature Precipitation Wind Pressure Humidity
00:00 +5°C° 0 mm 4 mps 750 mmHg 90%
01:00 +5°C° 0 mm 4 mps 749 mmHg 90%
02:00 +5°C° 0 mm 4 mps 749 mmHg 90%
03:00 +5°C° 0 mm 4 mps 748 mmHg 90%
04:00 +5°C° 0 mm 5 mps 747 mmHg 89%
05:00 +5°C° 0 mm 5 mps 746 mmHg 89%
06:00 +5°C° 0.2 mm 5 mps 745 mmHg 89%
07:00 +4°C° 0.2 mm 6 mps 744 mmHg 90%
08:00 +4°C° 0.2 mm 6 mps 743 mmHg 90%
09:00 +5°C° 1 mm 6 mps 743 mmHg 91%
10:00 +5°C° 1 mm 6 mps 742 mmHg 92%
11:00 +5°C° 1 mm 7 mps 742 mmHg 93%
12:00 +5°C° 0.8 mm 6 mps 741 mmHg 93%
13:00 +5°C° 0.8 mm 6 mps 741 mmHg 93%
14:00 +6°C° 0.8 mm 5 mps 741 mmHg 93%
15:00 +6°C° 0.1 mm 5 mps 741 mmHg 94%
16:00 +6°C° 0.1 mm 4 mps 741 mmHg 94%
17:00 +6°C° 0.1 mm 4 mps 742 mmHg 94%
18:00 +6°C° 0.1 mm 4 mps 742 mmHg 95%
19:00 +7°C° 0.1 mm 3 mps 742 mmHg 95%
20:00 +7°C° 0.1 mm 3 mps 742 mmHg 96%
21:00 +7°C° 0 mm 3 mps 743 mmHg 96%
22:00 +7°C° 0 mm 2 mps 743 mmHg 97%
23:00 +7°C° 0 mm 2 mps 743 mmHg 97%

25 September, Saturday

Time Temperature Precipitation Wind Pressure Humidity
00:00 +7°C° 0 mm 2 mps 743 mmHg 97%
01:00 +8°C° 0 mm 1 mps 743 mmHg 98%
02:00 +8°C° 0 mm 1 mps 744 mmHg 98%
03:00 +8°C° 0 mm 1 mps 744 mmHg 98%
04:00 +8°C° 0 mm 1 mps 744 mmHg 98%
05:00 +8°C° 0 mm 1 mps 745 mmHg 98%
06:00 +8°C° 0 mm 1 mps 745 mmHg 97%
07:00 +9°C° 0 mm 1 mps 745 mmHg 97%
08:00 +8°C° 0 mm 2 mps 746 mmHg 96%
09:00 +9°C° 0 mm 2 mps 746 mmHg 90%
10:00 +10°C° 0 mm 3 mps 746 mmHg 84%
11:00 +11°C° 0 mm 3 mps 746 mmHg 78%
12:00 +11°C° 0.1 mm 3 mps 746 mmHg 77%
13:00 +12°C° 0.1 mm 3 mps 746 mmHg 75%
14:00 +12°C° 0.1 mm 4 mps 747 mmHg 74%
15:00 +11°C° 0.1 mm 4 mps 747 mmHg 79%
16:00 +11°C° 0.1 mm 4 mps 747 mmHg 85%
17:00 +10°C° 0.1 mm 4 mps 747 mmHg 91%
18:00 +10°C° 1.1 mm 4 mps 747 mmHg 93%
19:00 +8°C° 1.1 mm 5 mps 747 mmHg 94%
20:00 +8°C° 1.1 mm 5 mps 747 mmHg 96%
21:00 +9°C° 0.3 mm 5 mps 747 mmHg 96%
22:00 +9°C° 0.3 mm 5 mps 747 mmHg 96%
23:00 +9°C° 0.3 mm 5 mps 746 mmHg 96%
Show more

We Need Your Consent

Meteoprog and our Service Providers may store and access personal data such as cookies, device identifiers or other similar technologies on your device and process such data to personalise content and ads, as well as provide social media features and to analyse the traffic.

  • Store and/or access information on your device

    Cookies, device identifiers or other information can be stored or accessed on your device for the purposes indicated above.

  • Personalised ads and content, ad and content measurement, audience insights, and products development

    Ads and content can be personalised based on a profile. More data can be added to better personalise ads and content. Ad and content performance can be measured. Insights about the audience who saw the ads and content can be derived. Such data can be used to develop or improve user’s experience, systems and software.

By clicking ‘I Agree’ you will allow the use of indicated cookies, device identifiers, web beacons or other similar technologies. Your settings can be changed in the browser on your device.

For certain purposes, legitimate interests may be relied on, rather than consent. You can read more about this in our Privacy and Cookie Policy.